Time,TemperatureF,DewpointF,PressureIn,WindDirection,WindDirectionDegrees,WindSpeedMPH,WindSpeedGustMPH,Humidity,HourlyPrecipIn,Conditions,Clouds,dailyrainin,SolarRadiationWatts/m^2,SoftwareType,DateUTC
2013-05-13 00:02:00,62.0,40.0,-100.00,SE,140,5.0,7.0,44,0.00,,,0.00,0.000000,,2013-05-13 05:02:00,
2013-05-13 00:32:00,60.0,37.0,-100.00,SE,136,4.0,7.0,42,0.00,,,0.00,0.000000,,2013-05-13 05:32:00,
2013-05-13 00:42:00,60.0,37.0,-100.00,SE,136,4.0,7.0,42,0.00,,,0.00,0.000000,,2013-05-13 05:42:00,
2013-05-13 00:52:00,60.0,37.0,-100.00,SE,136,4.0,7.0,42,0.00,,,0.00,0.000000,,2013-05-13 05:52:00,
2013-05-13 01:01:00,60.0,37.0,-100.00,SE,136,4.0,7.0,42,0.00,,,0.00,0.000000,,2013-05-13 06:01:00,
2013-05-13 01:32:00,63.0,36.0,-100.00,SE,146,6.0,9.0,36,0.00,,,0.00,0.000000,,2013-05-13 06:32:00,
2013-05-13 01:42:00,63.0,36.0,-100.00,SE,146,6.0,9.0,36,0.00,,,0.00,0.000000,,2013-05-13 06:42:00,
2013-05-13 01:52:00,63.0,36.0,-100.00,SE,146,6.0,9.0,36,0.00,,,0.00,0.000000,,2013-05-13 06:52:00,
2013-05-13 02:01:00,63.0,36.0,-100.00,SE,146,6.0,9.0,36,0.00,,,0.00,0.000000,,2013-05-13 07:01:00,
2013-05-13 02:32:00,64.0,38.0,-100.00,SSE,157,7.0,11.0,38,0.00,,,0.00,0.000000,,2013-05-13 07:32:00,
2013-05-13 02:42:00,64.0,38.0,-100.00,SSE,157,7.0,11.0,38,0.00,,,0.00,0.000000,,2013-05-13 07:42:00,
2013-05-13 02:52:00,64.0,38.0,-100.00,SSE,157,7.0,11.0,38,0.00,,,0.00,0.000000,,2013-05-13 07:52:00,
2013-05-13 03:02:00,64.0,38.0,-100.00,SSE,157,7.0,11.0,38,0.00,,,0.00,0.000000,,2013-05-13 08:02:00,
2013-05-13 03:32:00,63.0,34.0,-100.00,SSE,158,8.0,11.0,34,0.00,,,0.00,0.000000,,2013-05-13 08:32:00,
2013-05-13 03:42:00,63.0,34.0,-100.00,SSE,158,8.0,11.0,34,0.00,,,0.00,0.000000,,2013-05-13 08:42:00,
2013-05-13 03:52:00,63.0,34.0,-100.00,SSE,158,8.0,11.0,34,0.00,,,0.00,0.000000,,2013-05-13 08:52:00,
2013-05-13 04:01:00,63.0,34.0,-100.00,SSE,158,8.0,11.0,34,0.00,,,0.00,0.000000,,2013-05-13 09:01:00,
2013-05-13 04:33:00,61.0,36.0,-100.00,South,187,4.0,11.0,40,0.00,,,0.00,0.000000,,2013-05-13 09:33:00,
2013-05-13 04:42:00,61.0,36.0,-100.00,South,187,4.0,11.0,40,0.00,,,0.00,0.000000,,2013-05-13 09:42:00,
2013-05-13 04:52:00,61.0,36.0,-100.00,South,187,4.0,11.0,40,0.00,,,0.00,0.000000,,2013-05-13 09:52:00,
2013-05-13 05:03:00,61.0,36.0,-100.00,South,187,4.0,11.0,40,0.00,,,0.00,0.000000,,2013-05-13 10:03:00,
2013-05-13 05:33:00,55.0,39.0,-100.00,SSW,195,3.0,7.0,54,0.00,,,0.00,0.000000,,2013-05-13 10:33:00,
2013-05-13 05:43:00,55.0,39.0,-100.00,SSW,195,3.0,7.0,54,0.00,,,0.00,0.000000,,2013-05-13 10:43:00,
2013-05-13 05:52:00,55.0,39.0,-100.00,SSW,195,3.0,7.0,54,0.00,,,0.00,0.000000,,2013-05-13 10:52:00,
2013-05-13 06:02:00,55.0,39.0,-100.00,SSW,195,3.0,7.0,54,0.00,,,0.00,0.000000,,2013-05-13 11:02:00,
2013-05-13 06:32:00,57.0,40.0,-100.00,South,183,4.0,8.0,53,0.00,,,0.00,0.000000,,2013-05-13 11:32:00,
2013-05-13 06:42:00,57.0,40.0,-100.00,South,183,4.0,8.0,53,0.00,,,0.00,0.000000,,2013-05-13 11:42:00,
2013-05-13 06:52:00,57.0,40.0,-100.00,South,183,4.0,8.0,53,0.00,,,0.00,0.000000,,2013-05-13 11:52:00,
2013-05-13 07:01:00,57.0,40.0,-100.00,South,183,4.0,8.0,53,0.00,,,0.00,0.000000,,2013-05-13 12:01:00,
2013-05-13 07:32:00,59.0,42.0,-100.00,South,180,5.0,8.0,53,0.00,,,-99.99,11.000000,,2013-05-13 12:32:00,
2013-05-13 07:42:00,59.0,42.0,-100.00,South,180,5.0,8.0,53,0.00,,,-99.99,11.000000,,2013-05-13 12:42:00,
2013-05-13 07:52:00,59.0,42.0,-100.00,South,180,5.0,8.0,53,0.00,,,-99.99,11.000000,,2013-05-13 12:52:00,
2013-05-13 08:01:00,59.0,42.0,-100.00,South,180,5.0,8.0,53,0.00,,,-99.99,11.000000,,2013-05-13 13:01:00,
2013-05-13 08:32:00,64.0,44.0,-100.00,SSW,194,7.0,11.0,49,0.00,,,0.00,147.000000,,2013-05-13 13:32:00,
2013-05-13 08:42:00,64.0,44.0,-100.00,SSW,194,7.0,11.0,49,0.00,,,0.00,147.000000,,2013-05-13 13:42:00,
2013-05-13 08:52:00,64.0,44.0,-100.00,SSW,194,7.0,11.0,49,0.00,,,0.00,147.000000,,2013-05-13 13:52:00,
2013-05-13 09:02:00,64.0,44.0,-100.00,SSW,194,7.0,11.0,49,0.00,,,0.00,147.000000,,2013-05-13 14:02:00,
2013-05-13 09:32:00,69.0,47.0,-100.00,South,189,7.0,14.0,46,0.00,,,0.00,342.000000,,2013-05-13 14:32:00,
2013-05-13 09:42:00,69.0,47.0,-100.00,South,189,7.0,14.0,46,0.00,,,0.00,342.000000,,2013-05-13 14:42:00,
2013-05-13 09:52:00,69.0,47.0,-100.00,South,189,7.0,14.0,46,0.00,,,0.00,342.000000,,2013-05-13 14:52:00,
2013-05-13 10:01:00,69.0,47.0,-100.00,South,189,7.0,14.0,46,0.00,,,0.00,342.000000,,2013-05-13 15:01:00,
2013-05-13 10:32:00,73.0,50.0,-100.00,South,180,8.0,16.0,45,0.00,,,0.00,588.000000,,2013-05-13 15:32:00,
2013-05-13 10:42:00,73.0,50.0,-100.00,South,180,8.0,16.0,45,0.00,,,0.00,588.000000,,2013-05-13 15:42:00,
2013-05-13 10:53:00,73.0,50.0,-100.00,South,180,8.0,16.0,45,0.00,,,0.00,588.000000,,2013-05-13 15:53:00,
2013-05-13 11:03:00,73.0,50.0,-100.00,South,180,8.0,16.0,45,0.00,,,0.00,588.000000,,2013-05-13 16:03:00,
2013-05-13 11:34:00,76.0,50.0,-100.00,South,185,8.0,15.0,40,0.00,,,0.00,787.000000,,2013-05-13 16:34:00,
2013-05-13 11:43:00,76.0,50.0,-100.00,South,185,8.0,15.0,40,0.00,,,0.00,787.000000,,2013-05-13 16:43:00,
2013-05-13 11:53:00,76.0,50.0,-100.00,South,185,8.0,15.0,40,0.00,,,0.00,787.000000,,2013-05-13 16:53:00,
2013-05-13 12:02:00,76.0,50.0,-100.00,South,185,8.0,15.0,40,0.00,,,0.00,787.000000,,2013-05-13 17:02:00,
2013-05-13 12:32:00,80.0,51.0,-100.00,South,189,7.0,16.0,37,0.00,,,0.00,936.000000,,2013-05-13 17:32:00,
2013-05-13 12:42:00,80.0,51.0,-100.00,South,189,7.0,16.0,37,0.00,,,0.00,936.000000,,2013-05-13 17:42:00,
2013-05-13 12:54:00,80.0,51.0,-100.00,South,189,7.0,16.0,37,0.00,,,0.00,936.000000,,2013-05-13 17:54:00,
2013-05-13 13:03:00,80.0,51.0,-100.00,South,189,7.0,16.0,37,0.00,,,0.00,936.000000,,2013-05-13 18:03:00,
2013-05-13 14:32:00,84.0,50.0,-100.00,SSW,201,8.0,14.0,31,-99.99,,,0.00,1054.000000,,2013-05-13 19:32:00,
2013-05-13 14:44:00,84.0,50.0,-100.00,SSW,201,8.0,14.0,31,-99.99,,,0.00,1054.000000,,2013-05-13 19:44:00,
2013-05-13 14:53:00,84.0,50.0,-100.00,SSW,201,8.0,14.0,31,-99.99,,,0.00,1054.000000,,2013-05-13 19:53:00,
2013-05-13 15:01:00,84.0,50.0,-100.00,SSW,201,8.0,14.0,31,-99.99,,,0.00,1054.000000,,2013-05-13 20:01:00,
2013-05-13 15:34:00,86.0,48.0,-100.00,SSW,199,9.0,16.0,27,0.00,,,0.00,1022.000000,,2013-05-13 20:34:00,
2013-05-13 15:44:00,86.0,48.0,-100.00,SSW,199,9.0,16.0,27,0.00,,,0.00,1022.000000,,2013-05-13 20:44:00,
2013-05-13 15:53:00,86.0,48.0,-100.00,SSW,199,9.0,16.0,27,0.00,,,0.00,1022.000000,,2013-05-13 20:53:00,
2013-05-13 16:03:00,86.0,48.0,-100.00,SSW,199,9.0,16.0,27,0.00,,,0.00,1022.000000,,2013-05-13 21:03:00,
2013-05-13 16:34:00,87.0,47.0,-100.00,South,189,8.0,16.0,25,0.00,,,0.00,927.000000,,2013-05-13 21:34:00,
2013-05-13 16:44:00,87.0,47.0,-100.00,South,189,8.0,16.0,25,0.00,,,0.00,927.000000,,2013-05-13 21:44:00,
2013-05-13 16:53:00,87.0,47.0,-100.00,South,189,8.0,16.0,25,0.00,,,0.00,927.000000,,2013-05-13 21:53:00,
2013-05-13 17:02:00,87.0,47.0,-100.00,South,189,8.0,16.0,25,0.00,,,0.00,927.000000,,2013-05-13 22:02:00,
2013-05-13 17:32:00,87.0,48.0,-100.00,South,185,7.0,17.0,26,0.00,,,0.00,646.000000,,2013-05-13 22:32:00,
2013-05-13 17:43:00,87.0,48.0,-100.00,South,185,7.0,17.0,26,0.00,,,0.00,646.000000,,2013-05-13 22:43:00,
2013-05-13 17:52:00,87.0,48.0,-100.00,South,185,7.0,17.0,26,0.00,,,0.00,646.000000,,2013-05-13 22:52:00,
2013-05-13 18:02:00,87.0,48.0,-100.00,South,185,7.0,17.0,26,0.00,,,0.00,646.000000,,2013-05-13 23:02:00,
2013-05-13 18:34:00,86.0,47.0,-100.00,South,178,8.0,13.0,26,0.00,,,0.00,536.000000,,2013-05-13 23:34:00,
2013-05-13 18:42:00,86.0,47.0,-100.00,South,178,8.0,13.0,26,0.00,,,0.00,536.000000,,2013-05-13 23:42:00,
2013-05-13 18:54:00,86.0,47.0,-100.00,South,178,8.0,13.0,26,0.00,,,0.00,536.000000,,2013-05-13 23:54:00,
2013-05-13 19:02:00,86.0,47.0,-100.00,South,178,8.0,13.0,26,0.00,,,0.00,536.000000,,2013-05-14 00:02:00,
2013-05-13 20:32:00,79.0,44.0,-100.00,SSE,159,8.0,14.0,29,-99.99,,,0.00,91.000000,,2013-05-14 01:32:00,
2013-05-13 20:43:00,79.0,44.0,-100.00,SSE,159,8.0,14.0,29,-99.99,,,0.00,91.000000,,2013-05-14 01:43:00,
2013-05-13 20:53:00,79.0,44.0,-100.00,SSE,159,8.0,14.0,29,-99.99,,,0.00,91.000000,,2013-05-14 01:53:00,
2013-05-13 21:02:00,79.0,44.0,-100.00,SSE,159,8.0,14.0,29,-99.99,,,0.00,91.000000,,2013-05-14 02:02:00,
2013-05-13 21:32:00,76.0,45.0,-100.00,SSE,159,9.0,14.0,33,0.00,,,0.00,3.000000,,2013-05-14 02:32:00,
2013-05-13 21:42:00,76.0,45.0,-100.00,SSE,159,9.0,14.0,33,0.00,,,0.00,3.000000,,2013-05-14 02:42:00,
2013-05-13 21:52:00,76.0,45.0,-100.00,SSE,159,9.0,14.0,33,0.00,,,0.00,3.000000,,2013-05-14 02:52:00,
2013-05-13 22:01:00,76.0,45.0,-100.00,SSE,159,9.0,14.0,33,0.00,,,0.00,3.000000,,2013-05-14 03:01:00,
2013-05-13 22:33:00,74.0,46.0,-100.00,SSE,167,8.0,14.0,37,0.00,,,0.00,0.000000,,2013-05-14 03:33:00,
2013-05-13 22:43:00,74.0,46.0,-100.00,SSE,167,8.0,14.0,37,0.00,,,0.00,0.000000,,2013-05-14 03:43:00,
2013-05-13 22:53:00,74.0,46.0,-100.00,SSE,167,8.0,14.0,37,0.00,,,0.00,0.000000,,2013-05-14 03:53:00,
2013-05-13 23:02:00,74.0,46.0,-100.00,SSE,167,8.0,14.0,37,0.00,,,0.00,0.000000,,2013-05-14 04:02:00,
2013-05-13 23:32:00,72.0,48.0,-100.00,SSE,168,8.0,14.0,42,0.00,,,0.00,0.000000,,2013-05-14 04:32:00,
2013-05-13 23:43:00,72.0,48.0,-100.00,SSE,168,8.0,14.0,42,0.00,,,0.00,0.000000,,2013-05-14 04:43:00,
2013-05-13 23:53:00,72.0,48.0,-100.00,SSE,168,8.0,14.0,42,0.00,,,0.00,0.000000,,2013-05-14 04:53:00,